| time (UTC) | temp C | wind direction | speed KPH | gust KPH | rain 1hr cm | rain 24hr cm | rain mn cm | humidity % | barometer mb |
| 20260510000503 | 27 | 122 | 3.2 | 11.3 | 0.00 | 0.00 | 0.00 | 44 | 1008.2 |
| 20260510000003 | 27 | 136 | 4.8 | 17.7 | 0.00 | 0.00 | 0.00 | 43 | 1007.8 |
| 20260509235503 | 28 | 117 | 3.2 | 17.7 | 0.00 | 0.00 | 0.00 | 43 | 1008.0 |
| 20260509235003 | 28 | 136 | 6.4 | 17.7 | 0.00 | 0.00 | 0.00 | 42 | 1008.1 |
| 20260509234524 | 28 | 147 | 8.0 | 17.7 | 0.00 | 0.00 | 0.00 | 42 | 1007.9 |
| 20260509234003 | 28 | 126 | 8.0 | 16.1 | 0.00 | 0.03 | 0.00 | 41 | 1008.0 |
| 20260509233503 | 28 | 145 | 4.8 | 14.5 | 0.00 | 0.03 | 0.00 | 39 | 1008.1 |
| 20260509233003 | 28 | 128 | 8.0 | 16.1 | 0.00 | 0.03 | 0.00 | 37 | 1008.4 |
| 20260509232524 | 28 | 154 | 4.8 | 16.1 | 0.00 | 0.03 | 0.00 | 38 | 1008.3 |
| 20260509232003 | 28 | 145 | 6.4 | 16.1 | 0.00 | 0.05 | 0.00 | 36 | 1007.7 |
| 20260509231503 | 29 | 138 | 6.4 | 16.1 | 0.00 | 0.05 | 0.00 | 36 | 1008.3 |
| 20260509231003 | 29 | 119 | 8.0 | 16.1 | 0.00 | 0.05 | 0.00 | 34 | 1008.0 |
| 20260509230524 | 29 | 131 | 6.4 | 14.5 | 0.00 | 0.05 | 0.00 | 34 | 1008.4 |
| 20260509230003 | 29 | 136 | 4.8 | 17.7 | 0.00 | 0.10 | 0.00 | 34 | 1008.6 |
| 20260509225503 | 29 | 120 | 6.4 | 17.7 | 0.00 | 0.25 | 0.00 | 34 | 1008.5 |
| 20260509225003 | 29 | 133 | 8.0 | 16.1 | 0.00 | 0.33 | 0.00 | 32 | 1008.7 |
| 20260509224503 | 29 | 183 | 0.0 | 14.5 | 0.00 | 0.33 | 0.00 | 33 | 1008.8 |
| 20260509224004 | 29 | 134 | 6.4 | 14.5 | 0.00 | 0.33 | 0.00 | 33 | 1008.7 |
| 20260509223503 | 29 | 142 | 8.0 | 12.9 | 0.00 | 0.33 | 0.00 | 32 | 1009.3 |
| 20260509223003 | 29 | 146 | 1.6 | 14.5 | 0.00 | 0.33 | 0.00 | 32 | 1009.0 |
| 20260509222503 | 29 | 164 | 4.8 | 14.5 | 0.00 | 0.33 | 0.00 | 32 | 1009.0 |
| 20260509222024 | 29 | 142 | 6.4 | 14.5 | 0.00 | 0.33 | 0.00 | 30 | 1009.1 |
| 20260509221503 | 29 | 118 | 4.8 | 12.9 | 0.00 | 0.33 | 0.00 | 30 | 1008.9 |
| 20260509221003 | 29 | 197 | 4.8 | 16.1 | 0.00 | 0.33 | 0.00 | 30 | 1009.1 |
| 20260509220503 | 29 | 114 | 3.2 | 16.1 | 0.00 | 0.33 | 0.00 | 30 | 1009.0 |
| 20260509220003 | 30 | 146 | 3.2 | 16.1 | 0.00 | 0.33 | 0.00 | 31 | 1009.2 |
| 20260509215503 | 30 | 111 | 8.0 | 14.5 | 0.00 | 0.33 | 0.00 | 31 | 1008.9 |
| 20260509215003 | 30 | 124 | 4.8 | 14.5 | 0.00 | 0.33 | 0.00 | 31 | 1009.2 |
| 20260509214503 | 30 | 129 | 8.0 | 14.5 | 0.00 | 0.33 | 0.00 | 30 | 1009.1 |
| 20260509214003 | 30 | 201 | 1.6 | 14.5 | 0.00 | 0.33 | 0.00 | 30 | 1008.8 |
| 20260509213524 | 30 | 144 | 8.0 | 14.5 | 0.00 | 0.33 | 0.00 | 30 | 1009.2 |
| 20260509213003 | 30 | 118 | 6.4 | 14.5 | 0.00 | 0.33 | 0.00 | 31 | 1009.3 |
| 20260509212503 | 30 | 109 | 6.4 | 14.5 | 0.00 | 0.33 | 0.00 | 30 | 1009.1 |
| 20260509212003 | 30 | 113 | 4.8 | 17.7 | 0.00 | 0.33 | 0.00 | 29 | 1009.4 |
| 20260509211503 | 30 | 115 | 8.0 | 17.7 | 0.00 | 0.33 | 0.00 | 32 | 1009.1 |
| 20260509211024 | 30 | 104 | 4.8 | 16.1 | 0.00 | 0.33 | 0.00 | 31 | 1009.3 |
| 20260509210524 | 30 | 136 | 4.8 | 16.1 | 0.00 | 0.33 | 0.00 | 32 | 1009.5 |
| 20260509210003 | 30 | 147 | 4.8 | 16.1 | 0.00 | 0.33 | 0.00 | 32 | 1009.3 |
| 20260509205503 | 30 | 143 | 4.8 | 16.1 | 0.00 | 0.33 | 0.00 | 34 | 1009.6 |
| 20260509205003 | 30 | 136 | 4.8 | 16.1 | 0.00 | 0.33 | 0.00 | 33 | 1009.9 |
| 20260509204524 | 30 | 125 | 4.8 | 12.9 | 0.00 | 0.33 | 0.00 | 34 | 1009.7 |
| 20260509204003 | 30 | 129 | 4.8 | 17.7 | 0.00 | 0.33 | 0.00 | 35 | 1009.8 |
| 20260509203503 | 30 | 102 | 6.4 | 17.7 | 0.00 | 0.33 | 0.00 | 32 | 1009.9 |
| 20260509203003 | 30 | 110 | 8.0 | 16.1 | 0.00 | 0.33 | 0.00 | 33 | 1009.8 |
| 20260509202524 | 30 | 122 | 4.8 | 16.1 | 0.00 | 0.33 | 0.00 | 35 | 1009.9 |
| 20260509202003 | 30 | 63 | 4.8 | 17.7 | 0.00 | 0.33 | 0.00 | 34 | 1009.8 |
| 20260509201503 | 29 | 112 | 8.0 | 17.7 | 0.00 | 0.33 | 0.00 | 37 | 1010.0 |
| 20260509201003 | 30 | 129 | 8.0 | 17.7 | 0.00 | 0.33 | 0.00 | 35 | 1010.1 |
| 20260509200503 | 30 | 101 | 6.4 | 17.7 | 0.00 | 0.33 | 0.00 | 36 | 1010.1 |
| 20260509200003 | 30 | 131 | 6.4 | 17.7 | 0.00 | 0.33 | 0.00 | 37 | 1010.0 |
| 20260509195503 | 30 | 163 | 1.6 | 16.1 | 0.00 | 0.33 | 0.00 | 36 | 1010.4 |
| 20260509195003 | 30 | 155 | 4.8 | 16.1 | 0.00 | 0.33 | 0.00 | 37 | 1010.2 |
| 20260509194503 | 30 | 134 | 6.4 | 11.3 | 0.00 | 0.33 | 0.00 | 38 | 1010.4 |
| 20260509194024 | 30 | 147 | 4.8 | 14.5 | 0.00 | 0.33 | 0.00 | 37 | 1009.9 |
| 20260509193503 | 30 | 151 | 4.8 | 16.1 | 0.00 | 0.33 | 0.00 | 39 | 1010.6 |
| 20260509193003 | 29 | 121 | 6.4 | 16.1 | 0.00 | 0.33 | 0.00 | 38 | 1010.4 |
| 20260509192503 | 29 | 84 | 6.4 | 14.5 | 0.00 | 0.33 | 0.00 | 40 | 1010.2 |
| 20260509192024 | 29 | 84 | 6.4 | 14.5 | 0.00 | 0.33 | 0.00 | 41 | 1010.7 |
| 20260509191524 | 28 | 83 | 6.4 | 12.9 | 0.00 | 0.33 | 0.00 | 38 | 1010.5 |
| 20260509191003 | 29 | 106 | 6.4 | 12.9 | 0.00 | 0.33 | 0.00 | 37 | 1010.4 |
| 20260509190524 | 28 | 77 | 4.8 | 12.9 | 0.00 | 0.33 | 0.00 | 39 | 1011.0 |
| 20260509190003 | 28 | 79 | 6.4 | 12.9 | 0.00 | 0.33 | 0.00 | 37 | 1010.6 |
| 20260509185503 | 28 | 101 | 6.4 | 12.9 | 0.00 | 0.33 | 0.00 | 39 | 1010.8 |
| 20260509185003 | 28 | 122 | 4.8 | 12.9 | 0.00 | 0.33 | 0.00 | 40 | 1010.8 |
| 20260509184503 | 28 | 119 | 4.8 | 12.9 | 0.00 | 0.33 | 0.00 | 39 | 1010.7 |
| 20260509184003 | 28 | 138 | 4.8 | 12.9 | 0.00 | 0.33 | 0.00 | 39 | 1011.1 |
| 20260509183503 | 28 | 136 | 3.2 | 12.9 | 0.00 | 0.33 | 0.00 | 38 | 1011.0 |
| 20260509183024 | 28 | 110 | 1.6 | 14.5 | 0.00 | 0.33 | 0.00 | 41 | 1011.2 |
| 20260509182524 | 28 | 129 | 6.4 | 14.5 | 0.00 | 0.33 | 0.00 | 46 | 1011.5 |
| 20260509182003 | 28 | 128 | 8.0 | 14.5 | 0.00 | 0.33 | 0.00 | 43 | 1011.1 |
| 20260509181503 | 28 | 255 | 1.6 | 9.7 | 0.00 | 0.33 | 0.00 | 41 | 1011.2 |
| 20260509181024 | 28 | 144 | 4.8 | 12.9 | 0.00 | 0.33 | 0.00 | 44 | 1011.1 |
| 20260509180503 | 28 | 122 | 4.8 | 12.9 | 0.00 | 0.33 | 0.00 | 43 | 1010.9 |
| 20260509180003 | 28 | 150 | 1.6 | 14.5 | 0.00 | 0.33 | 0.00 | 42 | 1011.8 |
| 20260509175503 | 28 | 109 | 1.6 | 14.5 | 0.00 | 0.33 | 0.00 | 38 | 1011.5 |
| 20260509175003 | 28 | 116 | 3.2 | 11.3 | 0.00 | 0.33 | 0.00 | 37 | 1011.6 |
| 20260509174503 | 27 | 115 | 3.2 | 11.3 | 0.00 | 0.33 | 0.00 | 39 | 1011.6 |
| 20260509174003 | 27 | 163 | 3.2 | 9.7 | 0.00 | 0.33 | 0.00 | 41 | 1011.7 |
| 20260509173503 | 27 | 250 | 1.6 | 11.3 | 0.00 | 0.33 | 0.00 | 46 | 1012.0 |
| 20260509173003 | 27 | 117 | 3.2 | 11.3 | 0.00 | 0.33 | 0.00 | 48 | 1011.5 |
| 20260509172503 | 27 | 113 | 6.4 | 12.9 | 0.00 | 0.33 | 0.00 | 43 | 1012.1 |
| 20260509172003 | 27 | 176 | 1.6 | 12.9 | 0.00 | 0.33 | 0.00 | 47 | 1012.4 |
| 20260509171524 | 26 | 111 | 8.0 | 12.9 | 0.00 | 0.33 | 0.00 | 51 | 1011.9 |
| 20260509171003 | 26 | 147 | 4.8 | 11.3 | 0.00 | 0.33 | 0.00 | 54 | 1012.4 |
| 20260509170503 | 26 | 238 | 1.6 | 11.3 | 0.00 | 0.33 | 0.00 | 53 | 1012.2 |
| 20260509170003 | 26 | 180 | 1.6 | 14.5 | 0.00 | 0.33 | 0.00 | 58 | 1012.3 |
| 20260509165503 | 26 | 144 | 6.4 | 16.1 | 0.00 | 0.33 | 0.00 | 59 | 1011.6 |
| 20260509165003 | 26 | 127 | 6.4 | 16.1 | 0.00 | 0.33 | 0.00 | 60 | 1011.8 |
| 20260509164503 | 25 | 170 | 6.4 | 14.5 | 0.00 | 0.33 | 0.00 | 65 | 1012.2 |
| 20260509164024 | 25 | 184 | 1.6 | 9.7 | 0.00 | 0.33 | 0.00 | 66 | 1012.2 |
| 20260509163503 | 25 | 139 | 4.8 | 6.4 | 0.00 | 0.33 | 0.00 | 68 | 1013.0 |
| 20260509163003 | 24 | 222 | 1.6 | 4.8 | 0.00 | 0.33 | 0.00 | 72 | 1012.5 |
| 20260509162524 | 23 | 166 | 0.0 | 4.8 | 0.00 | 0.33 | 0.00 | 73 | 1012.4 |
| 20260509162003 | 23 | 192 | 0.0 | 6.4 | 0.00 | 0.33 | 0.00 | 73 | 1012.7 |
| 20260509161503 | 23 | 250 | 0.0 | 12.9 | 0.00 | 0.33 | 0.00 | 70 | 1012.4 |
| 20260509161003 | 24 | 131 | 4.8 | 12.9 | 0.00 | 0.33 | 0.00 | 68 | 1012.6 |
| 20260509160503 | 24 | 153 | 3.2 | 12.9 | 0.00 | 0.33 | 0.00 | 70 | 1012.2 |
| 20260509160003 | 23 | 196 | 1.6 | 3.2 | 0.00 | 0.33 | 0.00 | 73 | 1012.5 |
| 20260509155503 | 23 | 158 | 0.0 | 3.2 | 0.00 | 0.33 | 0.00 | 77 | 1012.4 |
| 20260509155003 | 22 | 159 | 1.6 | 3.2 | 0.00 | 0.33 | 0.00 | 78 | 1012.6 |
| 20260509154503 | 22 | 148 | 1.6 | 3.2 | 0.00 | 0.33 | 0.00 | 77 | 1012.1 |
| 20260509154003 | 22 | 151 | 0.0 | 6.4 | 0.00 | 0.33 | 0.00 | 77 | 1012.3 |
| 20260509153503 | 22 | 252 | 0.0 | 11.3 | 0.00 | 0.33 | 0.00 | 75 | 1011.9 |
| 20260509153003 | 22 | 134 | 3.2 | 11.3 | 0.00 | 0.33 | 0.00 | 72 | 1012.1 |
| 20260509152503 | 22 | 133 | 6.4 | 11.3 | 0.00 | 0.33 | 0.00 | 71 | 1012.1 |
| 20260509152003 | 22 | 125 | 3.2 | 11.3 | 0.00 | 0.33 | 0.00 | 70 | 1012.0 |
| 20260509151503 | 22 | 121 | 4.8 | 11.3 | 0.00 | 0.33 | 0.00 | 69 | 1012.3 |
| 20260509151003 | 23 | 119 | 6.4 | 11.3 | 0.00 | 0.33 | 0.00 | 71 | 1012.3 |
| 20260509150524 | 22 | 83 | 3.2 | 11.3 | 0.00 | 0.33 | 0.00 | 75 | 1011.9 |
| 20260509150024 | 22 | 113 | 3.2 | 6.4 | 0.00 | 0.33 | 0.00 | 77 | 1011.9 |
| 20260509145503 | 21 | 147 | 0.0 | 6.4 | 0.00 | 0.33 | 0.00 | 80 | 1011.8 |
| 20260509145003 | 20 | 110 | 4.8 | 6.4 | 0.00 | 0.33 | 0.00 | 84 | 1011.8 |
| 20260509144503 | 20 | 112 | 1.6 | 4.8 | 0.00 | 0.33 | 0.00 | 88 | 1012.1 |
| 20260509144024 | 19 | 139 | 3.2 | 6.4 | 0.00 | 0.33 | 0.00 | 93 | 1011.9 |
| 20260509143524 | 18 | 127 | 1.6 | 6.4 | 0.00 | 0.33 | 0.00 | 96 | 1011.9 |
| 20260509143003 | 17 | 87 | 3.2 | 6.4 | 0.00 | 0.33 | 0.00 | 97 | 1011.8 |
| 20260509142503 | 17 | 223 | 1.6 | 3.2 | 0.00 | 0.33 | 0.00 | 98 | 1012.0 |
| 20260509142024 | 17 | 267 | 1.6 | 1.6 | 0.00 | 0.33 | 0.00 | 98 | 1012.1 |
| 20260509141524 | 16 | 263 | 0.0 | 1.6 | 0.00 | 0.33 | 0.00 | 98 | 1012.2 |
| 20260509141003 | 16 | 225 | 0.0 | 1.6 | 0.00 | 0.33 | 0.00 | 98 | 1012.0 |
| 20260509140503 | 16 | 260 | 0.0 | 1.6 | 0.00 | 0.33 | 0.00 | 98 | 1012.1 |
| 20260509140004 | 16 | 0 | 0.0 | 1.6 | 0.00 | 0.33 | 0.00 | 98 | 1012.0 |
| 20260509135503 | 16 | 73 | 0.0 | 1.6 | 0.00 | 0.33 | 0.00 | 98 | 1011.6 |
| 20260509135003 | 16 | 0 | 0.0 | 1.6 | 0.00 | 0.33 | 0.00 | 98 | 1012.0 |
| 20260509134503 | 16 | 0 | 0.0 | 3.2 | 0.00 | 0.33 | 0.00 | 98 | 1011.7 |
| 20260509134003 | 16 | 97 | 0.0 | 3.2 | 0.00 | 0.33 | 0.00 | 98 | 1011.6 |
| 20260509133503 | 16 | 101 | 1.6 | 3.2 | 0.00 | 0.33 | 0.00 | 99 | 1011.8 |
| 20260509133024 | 15 | 82 | 1.6 | 3.2 | 0.00 | 0.33 | 0.00 | 99 | 1011.9 |
| 20260509132503 | 15 | 0 | 0.0 | 0.0 | 0.00 | 0.33 | 0.00 | 99 | 1011.4 |
| 20260509132003 | 14 | 0 | 0.0 | 3.2 | 0.00 | 0.33 | 0.00 | 99 | 1011.4 |
| 20260509131503 | 14 | 0 | 0.0 | 3.2 | 0.00 | 0.33 | 0.00 | 99 | 1012.1 |
| 20260509131003 | 13 | 238 | 0.0 | 3.2 | 0.00 | 0.33 | 0.00 | 99 | 1011.4 |
| 20260509130524 | 13 | 0 | 0.0 | 0.0 | 0.00 | 0.33 | 0.00 | 99 | 1011.9 |
| 20260509130003 | 12 | 0 | 0.0 | 0.0 | 0.00 | 0.33 | 0.00 | 98 | 1011.4 |
| 20260509125503 | 12 | 0 | 0.0 | 0.0 | 0.00 | 0.33 | 0.00 | 98 | 1011.1 |
| 20260509125003 | 12 | 0 | 0.0 | 0.0 | 0.00 | 0.33 | 0.00 | 98 | 1011.1 |
| 20260509124503 | 12 | 0 | 0.0 | 1.6 | 0.00 | 0.33 | 0.00 | 98 | 1010.9 |
| 20260509124024 | 11 | 0 | 0.0 | 1.6 | 0.00 | 0.33 | 0.00 | 98 | 1011.1 |
| 20260509123503 | 11 | 205 | 0.0 | 1.6 | 0.00 | 0.33 | 0.00 | 98 | 1011.1 |
| 20260509123003 | 11 | 0 | 0.0 | 0.0 | 0.00 | 0.33 | 0.00 | 98 | 1011.4 |
| 20260509122503 | 11 | 0 | 0.0 | 0.0 | 0.00 | 0.33 | 0.00 | 98 | 1011.1 |
| 20260509122003 | 11 | 0 | 0.0 | 0.0 | 0.00 | 0.33 | 0.00 | 98 | 1011.0 |
| 20260509121503 | 11 | 0 | 0.0 | 0.0 | 0.00 | 0.33 | 0.00 | 98 | 1010.7 |
| 20260509121003 | 11 | 0 | 0.0 | 0.0 | 0.00 | 0.33 | 0.00 | 97 | 1011.3 |
| 20260509120503 | 11 | 0 | 0.0 | 0.0 | 0.00 | 0.33 | 0.00 | 97 | 1010.7 |
| 20260509120003 | 11 | 0 | 0.0 | 0.0 | 0.00 | 0.33 | 0.00 | 97 | 1010.6 |
| 20260509115503 | 11 | 0 | 0.0 | 0.0 | 0.00 | 0.33 | 0.00 | 97 | 1010.9 |
| 20260509115024 | 11 | 0 | 0.0 | 1.6 | 0.00 | 0.33 | 0.00 | 97 | 1010.8 |
| 20260509114524 | 11 | 0 | 0.0 | 1.6 | 0.00 | 0.33 | 0.00 | 97 | 1010.6 |
| 20260509114003 | 11 | 0 | 0.0 | 0.0 | 0.00 | 0.33 | 0.00 | 97 | 1010.6 |
| 20260509113503 | 11 | 0 | 0.0 | 0.0 | 0.00 | 0.33 | 0.00 | 97 | 1010.5 |
| 20260509113003 | 11 | 0 | 0.0 | 0.0 | 0.00 | 0.33 | 0.00 | 97 | 1010.6 |
| 20260509112503 | 11 | 0 | 0.0 | 0.0 | 0.00 | 0.33 | 0.00 | 97 | 1010.8 |
| 20260509112024 | 11 | 0 | 0.0 | 0.0 | 0.00 | 0.33 | 0.00 | 97 | 1010.1 |
| 20260509111503 | 11 | 0 | 0.0 | 0.0 | 0.00 | 0.33 | 0.00 | 97 | 1010.3 |
| 20260509111003 | 11 | 0 | 0.0 | 0.0 | 0.00 | 0.33 | 0.00 | 97 | 1010.4 |
| 20260509110503 | 11 | 0 | 0.0 | 0.0 | 0.00 | 0.33 | 0.00 | 97 | 1010.5 |
| 20260509110003 | 11 | 0 | 0.0 | 0.0 | 0.00 | 0.33 | 0.00 | 97 | 1010.3 |
| 20260509105503 | 11 | 0 | 0.0 | 0.0 | 0.00 | 0.33 | 0.00 | 97 | 1010.4 |
| 20260509105003 | 11 | 0 | 0.0 | 0.0 | 0.00 | 0.33 | 0.00 | 97 | 1010.4 |
| 20260509104503 | 11 | 0 | 0.0 | 0.0 | 0.00 | 0.33 | 0.00 | 97 | 1010.6 |
| 20260509104003 | 11 | 0 | 0.0 | 0.0 | 0.00 | 0.33 | 0.00 | 97 | 1010.3 |
| 20260509103503 | 11 | 0 | 0.0 | 0.0 | 0.00 | 0.33 | 0.00 | 97 | 1010.7 |
| 20260509103003 | 11 | 0 | 0.0 | 0.0 | 0.00 | 0.33 | 0.00 | 97 | 1010.7 |
| 20260509102503 | 11 | 0 | 0.0 | 0.0 | 0.00 | 0.33 | 0.00 | 97 | 1010.4 |
| 20260509102003 | 11 | 0 | 0.0 | 0.0 | 0.00 | 0.33 | 0.00 | 97 | 1010.7 |
| 20260509101524 | 12 | 0 | 0.0 | 0.0 | 0.00 | 0.33 | 0.00 | 97 | 1010.5 |
| 20260509101003 | 12 | 0 | 0.0 | 0.0 | 0.00 | 0.33 | 0.00 | 97 | 1010.7 |
| 20260509100503 | 12 | 0 | 0.0 | 0.0 | 0.00 | 0.33 | 0.00 | 97 | 1010.8 |
| 20260509100003 | 12 | 0 | 0.0 | 0.0 | 0.00 | 0.33 | 0.00 | 97 | 1010.9 |
| 20260509095503 | 12 | 0 | 0.0 | 0.0 | 0.00 | 0.33 | 0.00 | 97 | 1010.8 |
| 20260509095003 | 12 | 0 | 0.0 | 0.0 | 0.00 | 0.33 | 0.00 | 97 | 1010.8 |
| 20260509094503 | 12 | 0 | 0.0 | 0.0 | 0.00 | 0.33 | 0.00 | 97 | 1011.1 |
| 20260509094003 | 12 | 0 | 0.0 | 0.0 | 0.00 | 0.33 | 0.00 | 97 | 1011.3 |
| 20260509093524 | 12 | 0 | 0.0 | 0.0 | 0.00 | 0.33 | 0.00 | 97 | 1011.1 |
| 20260509093003 | 12 | 0 | 0.0 | 0.0 | 0.00 | 0.33 | 0.00 | 97 | 1011.2 |
| 20260509092524 | 12 | 0 | 0.0 | 0.0 | 0.00 | 0.33 | 0.00 | 97 | 1011.1 |
| 20260509092003 | 12 | 0 | 0.0 | 0.0 | 0.00 | 0.33 | 0.00 | 97 | 1010.7 |
| 20260509091503 | 12 | 0 | 0.0 | 0.0 | 0.00 | 0.33 | 0.00 | 97 | 1010.7 |
| 20260509091003 | 12 | 0 | 0.0 | 0.0 | 0.00 | 0.33 | 0.00 | 97 | 1011.1 |
| 20260509090503 | 12 | 0 | 0.0 | 0.0 | 0.00 | 0.33 | 0.00 | 97 | 1010.8 |
| 20260509090003 | 12 | 0 | 0.0 | 0.0 | 0.00 | 0.33 | 0.00 | 97 | 1010.9 |
| 20260509085524 | 12 | 0 | 0.0 | 0.0 | 0.00 | 0.33 | 0.00 | 97 | 1011.2 |
| 20260509085003 | 12 | 0 | 0.0 | 0.0 | 0.00 | 0.33 | 0.00 | 97 | 1010.8 |
| 20260509084524 | 12 | 0 | 0.0 | 0.0 | 0.00 | 0.33 | 0.00 | 97 | 1010.7 |
| 20260509084003 | 12 | 0 | 0.0 | 0.0 | 0.00 | 0.33 | 0.00 | 96 | 1010.9 |
| 20260509083503 | 12 | 0 | 0.0 | 0.0 | 0.00 | 0.33 | 0.00 | 96 | 1010.9 |
| 20260509083003 | 13 | 0 | 0.0 | 0.0 | 0.00 | 0.33 | 0.00 | 96 | 1010.7 |
| 20260509082503 | 13 | 0 | 0.0 | 0.0 | 0.00 | 0.33 | 0.00 | 96 | 1011.0 |
| 20260509082003 | 13 | 0 | 0.0 | 0.0 | 0.00 | 0.33 | 0.00 | 96 | 1010.7 |
| 20260509081503 | 13 | 0 | 0.0 | 0.0 | 0.00 | 0.33 | 0.00 | 96 | 1011.0 |
| 20260509081003 | 13 | 0 | 0.0 | 0.0 | 0.00 | 0.33 | 0.00 | 96 | 1010.7 |
| 20260509080503 | 13 | 0 | 0.0 | 0.0 | 0.00 | 0.33 | 0.00 | 96 | 1011.3 |
| 20260509080003 | 13 | 0 | 0.0 | 0.0 | 0.00 | 0.33 | 0.00 | 96 | 1011.1 |
| 20260509075503 | 13 | 0 | 0.0 | 0.0 | 0.00 | 0.33 | 0.00 | 96 | 1011.3 |
| 20260509075003 | 13 | 0 | 0.0 | 0.0 | 0.00 | 0.33 | 0.00 | 96 | 1011.6 |
| 20260509074503 | 13 | 0 | 0.0 | 0.0 | 0.00 | 0.33 | 0.00 | 96 | 1011.5 |
| 20260509074024 | 13 | 0 | 0.0 | 0.0 | 0.00 | 0.33 | 0.00 | 96 | 1011.1 |
| 20260509073524 | 13 | 0 | 0.0 | 0.0 | 0.00 | 0.33 | 0.00 | 96 | 1011.3 |
| 20260509073003 | 13 | 0 | 0.0 | 0.0 | 0.00 | 0.33 | 0.00 | 96 | 1011.3 |
| 20260509072524 | 13 | 0 | 0.0 | 0.0 | 0.00 | 0.33 | 0.00 | 96 | 1011.6 |
| 20260509072024 | 13 | 0 | 0.0 | 0.0 | 0.00 | 0.33 | 0.00 | 96 | 1011.7 |
| 20260509071524 | 13 | 0 | 0.0 | 0.0 | 0.00 | 0.33 | 0.00 | 96 | 1011.5 |
| 20260509071003 | 13 | 0 | 0.0 | 0.0 | 0.00 | 0.33 | 0.00 | 96 | 1011.3 |
| 20260509070503 | 14 | 0 | 0.0 | 0.0 | 0.00 | 0.33 | 0.00 | 96 | 1011.3 |
| 20260509070003 | 14 | 0 | 0.0 | 0.0 | 0.00 | 0.33 | 0.00 | 96 | 1011.6 |
| 20260509065503 | 14 | 0 | 0.0 | 0.0 | 0.00 | 0.33 | 0.00 | 96 | 1011.5 |
| 20260509065003 | 14 | 0 | 0.0 | 0.0 | 0.00 | 0.33 | 0.00 | 96 | 1011.4 |
| 20260509064503 | 14 | 0 | 0.0 | 0.0 | 0.00 | 0.33 | 0.00 | 96 | 1011.4 |
| 20260509064024 | 14 | 0 | 0.0 | 0.0 | 0.00 | 0.33 | 0.00 | 96 | 1011.1 |
| 20260509063503 | 14 | 0 | 0.0 | 0.0 | 0.00 | 0.33 | 0.00 | 96 | 1011.2 |
| 20260509063024 | 14 | 0 | 0.0 | 0.0 | 0.00 | 0.33 | 0.00 | 96 | 1011.5 |
| 20260509062503 | 14 | 0 | 0.0 | 0.0 | 0.00 | 0.33 | 0.00 | 96 | 1011.6 |
| 20260509062003 | 15 | 0 | 0.0 | 0.0 | 0.00 | 0.33 | 0.00 | 96 | 1011.7 |
| 20260509061504 | 15 | 0 | 0.0 | 0.0 | 0.00 | 0.33 | 0.00 | 96 | 1011.8 |
| 20260509061003 | 15 | 0 | 0.0 | 0.0 | 0.00 | 0.33 | 0.00 | 96 | 1011.7 |
| 20260509060524 | 15 | 0 | 0.0 | 0.0 | 0.00 | 0.33 | 0.00 | 96 | 1011.6 |
| 20260509060004 | 15 | 0 | 0.0 | 0.0 | 0.00 | 0.33 | 0.00 | 96 | 1011.7 |
| 20260509055503 | 15 | 0 | 0.0 | 0.0 | 0.00 | 0.33 | 0.00 | 96 | 1011.5 |
| 20260509055003 | 15 | 0 | 0.0 | 3.2 | 0.00 | 0.33 | 0.00 | 95 | 1011.6 |
| 20260509054503 | 15 | 97 | 0.0 | 3.2 | 0.00 | 0.33 | 0.00 | 95 | 1011.5 |
| 20260509054003 | 15 | 96 | 0.0 | 1.6 | 0.00 | 0.33 | 0.00 | 95 | 1011.4 |
| 20260509053503 | 15 | 0 | 0.0 | 0.0 | 0.00 | 0.33 | 0.00 | 95 | 1011.7 |
| 20260509053024 | 15 | 0 | 0.0 | 0.0 | 0.00 | 0.33 | 0.00 | 95 | 1011.5 |
| 20260509052503 | 15 | 0 | 0.0 | 0.0 | 0.00 | 0.33 | 0.00 | 95 | 1011.6 |
| 20260509052003 | 15 | 0 | 0.0 | 0.0 | 0.00 | 0.33 | 0.00 | 95 | 1011.5 |
| 20260509051503 | 15 | 0 | 0.0 | 0.0 | 0.00 | 0.33 | 0.00 | 95 | 1011.4 |
| 20260509051003 | 15 | 0 | 0.0 | 1.6 | 0.00 | 0.33 | 0.00 | 95 | 1011.6 |
| 20260509050503 | 15 | 0 | 0.0 | 1.6 | 0.00 | 0.33 | 0.00 | 95 | 1011.4 |
| 20260509050004 | 15 | 0 | 0.0 | 0.0 | 0.00 | 0.33 | 0.00 | 95 | 1011.6 |
| 20260509045524 | 16 | 0 | 0.0 | 1.6 | 0.00 | 0.33 | 0.33 | 95 | 1011.4 |
| 20260509045003 | 16 | 0 | 0.0 | 3.2 | 0.00 | 0.33 | 0.33 | 95 | 1011.4 |
| 20260509044503 | 16 | 96 | 0.0 | 4.8 | 0.00 | 0.33 | 0.33 | 95 | 1011.4 |
| 20260509044003 | 16 | 97 | 0.0 | 4.8 | 0.00 | 0.33 | 0.33 | 95 | 1011.6 |
| 20260509043524 | 16 | 116 | 0.0 | 6.4 | 0.00 | 0.33 | 0.33 | 95 | 1011.5 |
| 20260509043024 | 16 | 75 | 1.6 | 6.4 | 0.00 | 0.33 | 0.33 | 95 | 1011.7 |
| 20260509042503 | 16 | 75 | 1.6 | 12.9 | 0.00 | 0.33 | 0.33 | 95 | 1011.9 |
| 20260509042024 | 16 | 111 | 1.6 | 12.9 | 0.00 | 0.33 | 0.33 | 95 | 1011.7 |
| 20260509041503 | 16 | 109 | 3.2 | 6.4 | 0.00 | 0.33 | 0.33 | 95 | 1011.6 |
| 20260509041003 | 16 | 62 | 1.6 | 4.8 | 0.00 | 0.33 | 0.33 | 95 | 1011.7 |
| 20260509040503 | 16 | 0 | 0.0 | 4.8 | 0.00 | 0.33 | 0.33 | 95 | 1011.4 |
| 20260509040003 | 16 | 59 | 1.6 | 4.8 | 0.00 | 0.33 | 0.33 | 95 | 1011.3 |
| 20260509035502 | 16 | 73 | 1.6 | 4.8 | 0.00 | 0.33 | 0.33 | 95 | 1011.4 |
| 20260509035002 | 16 | 103 | 0.0 | 1.6 | 0.00 | 0.33 | 0.33 | 95 | 1011.1 |
| 20260509034502 | 16 | 0 | 0.0 | 0.0 | 0.00 | 0.33 | 0.33 | 95 | 1011.2 |
| 20260509034002 | 16 | 0 | 0.0 | 3.2 | 0.00 | 0.33 | 0.33 | 95 | 1010.9 |
| 20260509033502 | 16 | 0 | 0.0 | 3.2 | 0.00 | 0.33 | 0.33 | 95 | 1010.9 |
| 20260509033002 | 16 | 132 | 0.0 | 6.4 | 0.00 | 0.33 | 0.33 | 95 | 1010.8 |
| 20260509032502 | 16 | 115 | 1.6 | 6.4 | 0.00 | 0.33 | 0.33 | 95 | 1010.9 |
| 20260509032002 | 16 | 123 | 1.6 | 4.8 | 0.00 | 0.33 | 0.33 | 95 | 1010.7 |
| 20260509031502 | 16 | 0 | 0.0 | 0.0 | 0.00 | 0.33 | 0.33 | 94 | 1010.1 |
| 20260509031002 | 16 | 0 | 0.0 | 0.0 | 0.00 | 0.33 | 0.33 | 94 | 1010.2 |
| 20260509030502 | 16 | 0 | 0.0 | 0.0 | 0.00 | 0.33 | 0.33 | 94 | 1009.7 |
| 20260509030002 | 16 | 0 | 0.0 | 0.0 | 0.00 | 0.33 | 0.33 | 94 | 1009.5 |
| 20260509025502 | 16 | 0 | 0.0 | 0.0 | 0.00 | 0.33 | 0.33 | 94 | 1010.0 |
| 20260509025002 | 17 | 0 | 0.0 | 0.0 | 0.00 | 0.33 | 0.33 | 94 | 1009.6 |
| 20260509024502 | 17 | 0 | 0.0 | 0.0 | 0.00 | 0.33 | 0.33 | 93 | 1009.6 |
| 20260509024002 | 17 | 0 | 0.0 | 0.0 | 0.00 | 0.33 | 0.33 | 93 | 1010.1 |
| 20260509023502 | 17 | 0 | 0.0 | 0.0 | 0.00 | 0.33 | 0.33 | 93 | 1009.5 |
| 20260509023023 | 17 | 0 | 0.0 | 1.6 | 0.00 | 0.33 | 0.33 | 93 | 1009.7 |
| 20260509022502 | 17 | 0 | 0.0 | 1.6 | 0.00 | 0.33 | 0.33 | 93 | 1009.9 |
| 20260509022002 | 17 | 133 | 0.0 | 3.2 | 0.00 | 0.33 | 0.33 | 93 | 1010.0 |
| 20260509021502 | 17 | 0 | 0.0 | 4.8 | 0.00 | 0.33 | 0.33 | 93 | 1009.3 |
| 20260509021002 | 17 | 141 | 0.0 | 4.8 | 0.00 | 0.33 | 0.33 | 93 | 1009.3 |
| 20260509020502 | 17 | 135 | 3.2 | 12.9 | 0.00 | 0.33 | 0.33 | 92 | 1009.6 |
| 20260509020002 | 17 | 158 | 0.0 | 12.9 | 0.00 | 0.33 | 0.33 | 92 | 1009.3 |
| 20260509015502 | 17 | 80 | 4.8 | 12.9 | 0.00 | 0.33 | 0.33 | 92 | 1009.6 |
| 20260509015002 | 18 | 0 | 0.0 | 0.0 | 0.00 | 0.33 | 0.33 | 92 | 1008.8 |
| 20260509014502 | 18 | 0 | 0.0 | 0.0 | 0.00 | 0.33 | 0.33 | 91 | 1008.9 |
| 20260509014002 | 18 | 0 | 0.0 | 0.0 | 0.00 | 0.33 | 0.33 | 91 | 1008.3 |
| 20260509013502 | 18 | 0 | 0.0 | 0.0 | 0.00 | 0.33 | 0.33 | 91 | 1008.4 |
| 20260509013002 | 18 | 0 | 0.0 | 0.0 | 0.00 | 0.33 | 0.33 | 91 | 1008.1 |
| 20260509012523 | 18 | 0 | 0.0 | 0.0 | 0.00 | 0.33 | 0.33 | 90 | 1008.0 |
| 20260509012023 | 18 | 0 | 0.0 | 3.2 | 0.00 | 0.33 | 0.33 | 90 | 1008.2 |
| 20260509011523 | 18 | 0 | 0.0 | 3.2 | 0.00 | 0.33 | 0.33 | 90 | 1008.1 |
| 20260509011002 | 18 | 240 | 1.6 | 3.2 | 0.00 | 0.33 | 0.33 | 90 | 1008.2 |
| 20260509010524 | 18 | 261 | 0.0 | 4.8 | 0.00 | 0.33 | 0.33 | 89 | 1008.7 |
| 20260509010002 | 19 | 247 | 1.6 | 4.8 | 0.00 | 0.33 | 0.33 | 89 | 1008.4 |
| 20260509005523 | 19 | 219 | 1.6 | 3.2 | 0.00 | 0.33 | 0.33 | 89 | 1008.1 |
| 20260509005002 | 19 | 0 | 0.0 | 3.2 | 0.00 | 0.33 | 0.33 | 89 | 1008.2 |
| 20260509004502 | 19 | 220 | 0.0 | 4.8 | 0.00 | 0.33 | 0.33 | 88 | 1008.2 |
| 20260509004002 | 20 | 0 | 0.0 | 4.8 | 0.00 | 0.33 | 0.33 | 88 | 1008.1 |
| 20260509003502 | 20 | 254 | 0.0 | 4.8 | 0.00 | 0.33 | 0.33 | 88 | 1008.2 |
| 20260509003002 | 20 | 162 | 1.6 | 11.3 | 0.00 | 0.33 | 0.33 | 87 | 1007.5 |
| 20260509002502 | 20 | 263 | 3.2 | 11.3 | 0.00 | 0.33 | 0.33 | 87 | 1007.7 |
| 20260509002023 | 20 | 145 | 3.2 | 11.3 | 0.05 | 0.33 | 0.33 | 87 | 1007.1 |
| 20260509001502 | 20 | 161 | 0.0 | 1.6 | 0.05 | 0.33 | 0.33 | 88 | 1007.5 |
| 20260509001002 | 20 | 155 | 0.0 | 1.6 | 0.05 | 0.33 | 0.33 | 87 | 1007.5 |